Regional Weather Roundup
Issued by NWS

Home | Current Version | Previous Version | Text Only | Print | Product List | Glossary Off
Versions: 1 2 3 4 5 6 7 8 9 10 11 12 13 14 15 16 17 18 19 20 21 22 23 24 25 26 27 28 29 30 31 32 33 34 35 36 37 38 39 40 41 42 43 44 45 46 47 48 49 50

000
ASUS43 KLMK 211810
RWRKY
NATIONAL WEATHER SERVICE LOUISVILLE KY
100 PM EST TUE NOV 21 2017

NOTE "FAIR" INDICATES FEW OR NO CLOUDS BELOW 12,000 FEET
WITH NO SIGNIFICANT WEATHER AND/OR OBSTRUCTIONS TO VISIBILITY.

KYZ001>023-026-027-061>063-070>075-211900-
WESTERN AND SOUTH CENTRAL KENTUCKY

CITY           SKY/WX    TMP DP  RH WIND       PRES   REMARKS
PADUCAH        MOSUNNY   57  32  38 S9        29.98F
HENDERSON      SUNNY     56  36  47 SW18      29.97F
OWENSBORO      SUNNY     56  34  43 SW20      29.98F
HOPKINSVILLE   CLOUDY    55  30  39 SW13      30.01F
BOWLING GREEN  SUNNY     57  31  37 S13       30.02F
GLASGOW        SUNNY     57  29  35 SW12G17   30.01F
$$

KYZ024-025-028>034-038-045-046-053-211900-
NORTH CENTRAL KENTUCKY

CITY           SKY/WX    TMP DP  RH WIND       PRES   REMARKS
LOUISVILLE/SDF MOSUNNY   57  29  34 SW15      29.97F
LOUISVILLE/LOU SUNNY     56  31  38 SW16G22   29.98F
FORT KNOX      SUNNY     55  30  38 SW14      29.96F
$$

KYZ035>037-039>044-047>052-055>060-089>105-211900-
NORTHEAST KENTUCKY

CITY           SKY/WX    TMP DP  RH WIND       PRES   REMARKS
LEXINGTON      SUNNY     56  33  42 SW21G31   29.98F
COVINGTON      MOSUNNY   54  32  43 SW14G21   29.93F
FRANKFORT      SUNNY     56  29  35 SW21G28   29.97F
$$

KYZ054-064>069-076>088-106>120-211900-
SOUTHEAST KENTUCKY

CITY           SKY/WX    TMP DP  RH WIND       PRES   REMARKS
JACKSON        MOSUNNY   61  42  49 VRB7G20   30.00F
LONDON         MOSUNNY   59  43  55 SW10G21   30.02F
SOMERSET       SUNNY     59  37  44 W15       30.03F
MIDDLESBORO    CLOUDY    55  41  59 S9G16     30.07S
MONTICELLO     PTCLDY    62  43  49 SW22G29   30.03F
$$





USA.gov is the U.S. government's official web portal to all federal, state and local government web resources and services.